Showing default

MIDAS 3, 163

Orbit data source: Space-Track

MIDAS 3, 163 is a payload satellite owned by USAF SSD (US) in LEO that was launched on Wed, 12 Jul 1961 UTC via an ATLAS AGENA B launch vehicle from the Air Force Western Test Range (AFWTR). Payloads include a variety of satellites, spacecraft, and rockets equipped with specific instruments for various scientific and technological missions. These include communications satellites like Starlink; space stations such as the ISS; scientific satellites like the Hubble; Earth observation satellites from companies like Planet Labs, Umbra, and HawkEye 360; GPS; miniature CubeSats for education and research; and military/defense satellites.

Loading next visibility...
MIDAS 3 details
Identifier
163, 1961-018A
Orbit
LEO
Last TLE update1 day ago
Origin
Flag of USUSAF SSD (US)
ManufacturerLMSC
MissionDefense Early Warn
Bus & MotorMIDAS, Unknown motor
Mass~1,540 kg wet, 840 kg dry
Launch date (UTC)
1961-07-12 (63 years ago)
Launch vehicle
ATLAS AGENA B
Launch site
Air Force Western Test Range (AFWTR)
Object type
Payload
Rocket body
Debris
Shape & HBRCyl, 8.99 m
Radar Cross Section11.475 m², Large (>1 m²)

Expand to show TLE details & history

TLE from 1 day ago
0 MIDAS 3
1 00163U 61018A   24355.52753645  .00000000  00000-0 -63970-3 0  9991
2 00163  91.0904 182.0151 0099173  32.1777 328.5099  8.91836243 65549
Epoch: 2024-12-20T12:39Z
Definitive object data (Epoch: 2024-12-20T12:39:39.149Z)
Latitude
Longitude-97.48979°
Altitude3,363.562 km
Speed6.424 km/s
True Right ascension12h 08m 03s
True Declination0° 00' 00"
Sunlit
Object was in daylight at TLE epoch
Visualization TLE readout
Latitude-36.68212°
Longitude-96.63896°
Altitude3,419.655 km
Speed6.391 km/s
Apparent Right ascension13h 03m 14s
Apparent Declination-72° 39' 23"
Sunlit
Object is in daylight
Visualization observer readout
Local Sidereal Time11:38:56
Azimuth173.287° S
Elevation-23.524°
Doppler factor1
Orbital elements
Apogee altitude3,539.285 km
Perigee altitude3,344.509 km
Semi-major axis9,820.034 km
Eccentricity0.0099173
Inclination91.0904°
RAAN182.0151°
Arg. of periapsis32.1777°
True anomaly327.90995°
Mean anomaly328.5099°
Eccentric anomaly328.21056°
Mean motion2.23035 °/min
BSTAR-0.0006397
Orbital period161.41 mins
Loading maneuver chart data...
Loading historical data...
Loading historical data...
Loading historical data...
Loading historical data...
Loading historical data...
Loading historical data...
Loading historical data...

MIDAS 3 Visibility forecast

Observer location: undefined°, undefined

Span
Click to sort rows by Start time (UTC) header in descending order
Start Az.
Max El. time (UTC)
Max El. Az.
Max El.
End time (UTC)
End Az.
34 mins2024-12-21 12:54:07.052Z175.101° S2024-12-21 13:11:07.052Z290.592° WNW44.89°2024-12-21 13:28:07.052Z356.686° N
21 mins2024-12-21 15:45:07.052Z256.313° W2024-12-21 15:55:07.052Z295.794° NW18.899°2024-12-21 16:06:07.052Z337.597° N
18 mins2024-12-21 21:48:07.052Z30.308° NE2024-12-21 21:57:07.052Z63.519° ENE15.789°2024-12-21 22:06:07.052Z95.881° ESE
34 mins2024-12-22 00:25:07.052Z5.595° NNE2024-12-22 00:42:07.052Z104.015° ESE44.061°2024-12-22 00:59:07.052Z177.846° S
26 mins2024-12-22 03:07:07.052Z349.148° N2024-12-22 03:19:07.052Z301.202° NW27.953°2024-12-22 03:33:07.052Z245.781° WSW
25 mins2024-12-22 10:34:07.052Z111.739° ESE2024-12-22 10:46:07.052Z62.483° ENE27.265°2024-12-22 10:59:07.052Z9.716° NNE
|